This is the latest recevied weather packets stored in our database for station/object SV1JSO-13. If no packets are shown the sender has not sent any weather packets the latest 10 day(s).
| Time | Temp. | Humidity | Pressure | Rain* | Wind** | Luminosity | Snow |
|---|---|---|---|---|---|---|---|
| 1788174300 | 30° C | 49% | 1009 hPa | 0 mm | - | 726 W/m² | - |
| 1788174000 | 29.44° C | 49% | 1009 hPa | 0 mm | - | 728 W/m² | - |
| 1788173700 | 30.56° C | 46% | 1009.1 hPa | 0 mm | - | 730 W/m² | - |
| 1788173400 | 30.56° C | 45% | 1009 hPa | 0 mm | - | 733 W/m² | - |
| 1788173100 | 31.67° C | 41% | 1009.1 hPa | 0 mm | - | 736 W/m² | - |
| 1788172800 | 30.56° C | 45% | 1009.2 hPa | 0 mm | - | 736 W/m² | - |
| 1788172500 | 30.56° C | 46% | 1009.1 hPa | 0 mm | - | 738 W/m² | - |
| 1788172200 | 30.56° C | 43% | 1009.3 hPa | 0 mm | - | 739 W/m² | - |
| 1788171900 | 30° C | 46% | 1009.2 hPa | 0 mm | - | 735 W/m² | - |
| 1788171600 | 30.56° C | 48% | 1009.3 hPa | 0 mm | - | 734 W/m² | - |
| 1788171300 | 30.56° C | 42% | 1009.4 hPa | 0 mm | - | 733 W/m² | - |
| 1788171000 | 30.56° C | 41% | 1009.4 hPa | 0 mm | - | 730 W/m² | - |
| 1788170700 | 30.56° C | 42% | 1009.5 hPa | 0 mm | - | 725 W/m² | - |
| 1788170400 | 31.11° C | 42% | 1009.5 hPa | 0 mm | - | 725 W/m² | - |
| 1788170100 | 30.56° C | 42% | 1009.6 hPa | 0 mm | - | 719 W/m² | - |
| 1788169800 | 30.56° C | 41% | 1009.6 hPa | 0 mm | - | 716 W/m² | - |
| 1788169500 | 29.44° C | 41% | 1009.6 hPa | 0 mm | - | 711 W/m² | - |
| 1788169200 | 30° C | 41% | 1009.5 hPa | 0 mm | - | 711 W/m² | - |
| 1788168900 | 30° C | 41% | 1009.5 hPa | 0 mm | - | 710 W/m² | - |
| 1788168600 | 30° C | 42% | 1009.8 hPa | 0 mm | - | 704 W/m² | - |
| 1788168300 | 29.44° C | 42% | 1009.8 hPa | 0 mm | - | 698 W/m² | - |
| 1788168000 | 30° C | 41% | 1009.8 hPa | 0 mm | - | 694 W/m² | - |
| 1788167700 | 30° C | 43% | 1009.8 hPa | 0 mm | - | 688 W/m² | - |
| 1788167400 | 30.56° C | 40% | 1009.8 hPa | 0 mm | - | 685 W/m² | - |
| 1788167100 | 30° C | 41% | 1009.8 hPa | 0 mm | - | 671 W/m² | - |
* Rain latest hour (hover to see other rain measurements)
** Current wind speed in m/s (hover to see current wind gust speed)